Date String (YYYY-MM-DD hh:mm:ss) UTC,Instrument flags,absolute air pressure of the measurement (hPa),sample flow rate (lpm),inlet stack bypass flow (lpm),air temperature of the measurement (°C),ambient temperature measured by the external sensor (°C),aerosol sample conditioner tube jacket temperature (°C),OPC LED temperature (°C),internal box temperature (°C),relative humidity of the measurement (%),span deviation,mass concentration of particles derived from Lorenz-Mie calculation of OPC scattering (μg/m³),mass concentration of particles derived from Lorenz-Mie calculation of OPC scattering (μg/m³),mass concentration of particles derived from Lorenz-Mie calculation of OPC scattering (μg/m³)
DateTimeUTC,F1_M11,P_M11,Q1_M11,Q2_M11,T1_M11,T2_M11,T3_M11,T4_M11,T5_M11,U1_M11,ZSPAN_M11,X0_M11,X2_M11,X1_M11
2024-02-14 17:00:00,SystemResetWarning,0824.0,5.00,000.00,018.6,018.1,000.0,026.8,020.1,15.3,0000.0,0002.47,0000.88,0000.53
2024-02-14 17:01:00,SystemResetWarning,0823.9,5.01,000.00,018.6,018.1,000.0,026.8,020.2,15.6,0000.0,0002.40,0000.85,0000.52
2024-02-14 17:02:00,SystemResetWarning,0823.9,5.00,000.00,018.6,018.1,000.0,026.8,020.2,15.6,0000.0,0001.90,0000.80,0000.51
2024-02-14 17:03:00,SystemResetWarning,0823.9,5.00,000.00,018.6,018.1,000.0,026.8,020.2,15.2,0000.0,0001.65,0000.75,0000.50
2024-02-14 17:04:00,SystemResetWarning,0823.9,5.01,000.00,018.6,018.1,000.0,026.8,020.2,15.1,0000.0,0001.61,0000.73,0000.49
2024-02-14 17:05:00,SystemResetWarning,0823.9,5.00,000.00,018.6,018.1,000.0,026.8,020.2,15.3,0000.0,0001.57,0000.71,0000.48
2024-02-14 17:06:00,SystemResetWarning,0823.9,5.00,000.00,018.6,018.1,000.0,026.8,020.2,15.4,0000.0,0001.55,0000.70,0000.48
2024-02-14 17:07:00,SystemResetWarning,0823.8,4.99,000.00,018.6,018.1,000.0,026.8,020.2,15.8,0000.0,0001.20,0000.68,0000.47
2024-02-14 17:08:00,SystemResetWarning,0823.9,5.00,000.00,018.6,018.1,000.0,026.8,020.2,14.9,0000.0,0001.22,0000.67,0000.46
2024-02-14 17:09:00,SystemResetWarning,0823.9,5.00,000.00,018.6,018.1,000.0,026.8,020.2,15.2,0000.0,0001.24,0000.62,0000.45
2024-02-14 17:10:00,SystemResetWarning,0824.0,5.00,000.00,018.6,018.1,000.0,026.8,020.2,15.3,0000.0,0001.22,0000.62,0000.45
2024-02-14 17:11:00,SystemResetWarning,0823.8,5.00,000.00,018.6,018.1,000.0,026.8,020.2,15.4,0000.0,0001.16,0000.60,0000.45
2024-02-14 17:12:00,SystemResetWarning,0823.9,5.00,000.00,018.7,018.1,000.0,026.8,020.2,14.8,0000.0,0001.17,0000.59,0000.44
2024-02-14 17:13:00,SystemResetWarning,0823.9,5.00,000.00,018.7,018.1,000.0,026.8,020.2,15.0,0000.0,0001.18,0000.59,0000.44
2024-02-14 17:14:00,SystemResetWarning,0824.0,5.00,000.00,018.7,018.2,000.0,026.8,020.2,15.2,0000.0,0001.19,0000.60,0000.45
2024-02-14 17:15:00,SystemResetWarning,0823.9,5.00,000.00,018.7,018.2,000.0,026.8,020.2,15.3,0000.0,0001.19,0000.60,0000.46
2024-02-14 17:16:00,SystemResetWarning,0823.9,5.00,000.00,018.7,018.2,000.0,026.9,020.2,15.8,0000.0,0001.22,0000.62,0000.46
2024-02-14 17:17:00,SystemResetWarning,0824.0,4.99,000.00,018.7,018.2,000.0,026.9,020.3,15.3,0000.0,0001.22,0000.63,0000.46
2024-02-14 17:18:00,SystemResetWarning,0823.9,4.99,000.00,018.7,018.2,000.0,026.9,020.3,15.1,0000.0,0001.31,0000.66,0000.47
2024-02-14 17:19:00,SystemResetWarning,0823.9,5.00,000.00,018.7,018.2,000.0,026.9,020.3,15.0,0000.0,0001.95,0000.67,0000.48
2024-02-14 17:20:00,SystemResetWarning,0824.0,4.99,000.00,018.7,018.2,000.0,026.9,020.3,14.7,0000.0,0002.30,0000.69,0000.49
2024-02-14 17:21:00,SystemResetWarning,0824.0,5.01,000.00,018.7,018.2,000.0,026.9,020.3,15.1,0000.0,0002.31,0000.69,0000.49
2024-02-14 17:22:00,SystemResetWarning,0824.0,5.00,000.00,018.7,018.2,000.0,026.9,020.3,15.1,0000.0,0002.38,0000.72,0000.49
2024-02-14 17:23:00,SystemResetWarning,0824.0,4.99,000.00,018.7,018.2,000.0,026.9,020.3,15.4,0000.0,0002.46,0000.73,0000.51
2024-02-14 17:24:00,SystemResetWarning,0824.0,4.99,000.00,018.7,018.2,000.0,026.9,020.3,15.1,0000.0,0002.54,0000.76,0000.51
2024-02-14 17:25:00,SystemResetWarning,0823.9,5.02,000.00,018.7,018.3,000.0,026.9,020.3,15.2,0000.0,0002.63,0000.78,0000.51
2024-02-14 17:26:00,SystemResetWarning,0824.0,4.99,000.00,018.8,018.3,000.0,026.9,020.3,15.4,0000.0,0003.26,0000.82,0000.51
2024-02-14 17:27:00,SystemResetWarning,0824.0,4.99,000.00,018.8,018.3,000.0,026.9,020.3,15.1,0000.0,0003.50,0000.87,0000.51
2024-02-14 17:28:00,SystemResetWarning,0824.0,4.99,000.00,018.8,018.3,000.0,026.9,020.3,15.3,0000.0,0003.54,0000.87,0000.51
2024-02-14 17:29:00,SystemResetWarning,0824.0,5.00,000.00,018.8,018.3,000.0,026.9,020.3,14.9,0000.0,0003.49,0000.85,0000.52
2024-02-14 17:30:00,SystemResetWarning,0824.0,5.00,000.00,018.8,018.3,000.0,026.9,020.3,14.9,0000.0,0002.90,0000.82,0000.51
2024-02-14 17:31:00,SystemResetWarning,0824.0,5.00,000.00,018.8,018.3,000.0,026.9,020.4,15.1,0000.0,0002.19,0000.82,0000.51
2024-02-14 17:32:00,SystemResetWarning,0824.0,5.00,000.00,018.8,018.3,000.0,026.9,020.4,14.6,0000.0,0002.28,0000.82,0000.51
2024-02-14 17:33:00,SystemResetWarning,0824.0,5.00,000.00,018.8,018.4,000.0,027.0,020.4,14.9,0000.0,0002.29,0000.82,0000.51
2024-02-14 17:34:00,SystemResetWarning,0824.0,5.00,000.00,018.8,018.4,000.0,027.0,020.4,14.4,0000.0,0002.79,0000.86,0000.51
2024-02-14 17:35:00,SystemResetWarning,0824.0,5.00,000.00,018.8,018.4,000.0,027.0,020.4,14.2,0000.0,0002.98,0000.86,0000.51
2024-02-14 17:36:00,SystemResetWarning,0824.0,5.01,000.00,018.8,018.4,000.0,027.0,020.4,14.7,0000.0,0002.90,0000.85,0000.52
2024-02-14 17:37:00,SystemResetWarning,0824.0,5.00,000.00,018.8,018.4,000.0,027.0,020.4,14.6,0000.0,0002.62,0000.85,0000.53
2024-02-14 17:38:00,SystemResetWarning,0824.0,5.01,000.00,018.9,018.4,000.0,027.0,020.4,13.8,0000.0,0002.13,0000.81,0000.53
2024-02-14 17:39:00,SystemResetWarning,0824.0,4.99,000.00,018.9,018.4,000.0,027.0,020.4,13.7,0000.0,0002.05,0000.80,0000.53
2024-02-14 17:40:00,SystemResetWarning,0824.0,4.99,000.00,018.9,018.4,000.0,027.0,020.5,13.6,0000.0,0002.67,0000.83,0000.54
2024-02-14 17:41:00,SystemResetWarning,0824.0,4.99,000.00,018.9,018.4,000.0,027.0,020.5,13.8,0000.0,0003.10,0000.86,0000.54
2024-02-14 17:42:00,SystemResetWarning,0824.0,5.01,000.00,018.9,018.5,000.0,027.0,020.5,14.1,0000.0,0003.06,0000.84,0000.54
2024-02-14 17:43:00,SystemResetWarning,0824.0,5.00,000.00,018.9,018.5,000.0,027.0,020.5,14.4,0000.0,0003.01,0000.84,0000.54
2024-02-14 17:44:00,SystemResetWarning,0824.0,5.00,000.00,018.9,018.5,000.0,027.0,020.6,14.8,0000.0,0002.97,0000.86,0000.54
2024-02-14 17:45:00,SystemResetWarning,0823.9,5.00,000.00,018.9,018.5,000.0,027.0,020.6,14.6,0000.0,0002.82,0000.85,0000.54
2024-02-14 17:46:00,SystemResetWarning,0824.0,5.00,000.00,019.0,018.5,000.0,027.1,020.6,14.3,0000.0,0002.19,0000.81,0000.54
2024-02-14 17:47:00,SystemResetWarning,0824.0,5.00,000.00,019.0,018.5,000.0,027.1,020.6,14.3,0000.0,0002.28,0000.85,0000.53
2024-02-14 17:48:00,SystemResetWarning,0824.0,5.00,000.00,019.0,018.5,000.0,027.1,020.6,14.5,0000.0,0002.37,0000.89,0000.53
2024-02-14 17:49:00,SystemResetWarning,0824.0,5.01,000.00,019.0,018.6,000.0,027.1,020.6,13.9,0000.0,0002.38,0000.90,0000.53
2024-02-14 17:50:00,SystemResetWarning,0824.0,5.00,000.00,019.0,018.6,000.0,027.1,020.6,13.9,0000.0,0002.42,0000.93,0000.53
2024-02-14 17:51:00,SystemResetWarning,0824.0,4.99,000.00,019.0,018.6,000.0,027.1,020.6,14.2,0000.0,0001.98,0000.91,0000.53
2024-02-14 17:52:00,SystemResetWarning,0824.0,5.00,000.00,019.0,018.6,000.0,027.1,020.6,13.7,0000.0,0001.50,0000.90,0000.53
2024-02-14 17:53:00,SystemResetWarning,0824.0,5.00,000.00,019.0,018.6,000.0,027.1,020.6,13.9,0000.0,0001.61,0000.94,0000.53
2024-02-14 17:54:00,SystemResetWarning,0824.0,4.99,000.00,019.0,018.6,000.0,027.2,020.6,14.0,0000.0,0001.69,0000.96,0000.54
2024-02-14 17:55:00,SystemResetWarning,0823.9,5.00,000.00,019.1,018.6,000.0,027.2,020.6,13.5,0000.0,0001.78,0000.97,0000.54
2024-02-14 17:56:00,SystemResetWarning,0823.9,5.00,000.00,019.1,018.6,000.0,027.2,020.7,13.7,0000.0,0001.83,0000.99,0000.54
2024-02-14 17:57:00,SystemResetWarning,0823.9,5.00,000.00,019.1,018.6,000.0,027.2,020.7,14.0,0000.0,0001.90,0001.00,0000.55
2024-02-14 17:58:00,SystemResetWarning,0823.9,5.00,000.00,019.1,018.7,000.0,027.2,020.7,14.1,0000.0,0001.85,0000.98,0000.55
2024-02-14 17:59:00,SystemResetWarning,0823.8,5.00,000.00,019.1,018.7,000.0,027.2,020.7,13.6,0000.0,0001.73,0000.92,0000.55
